Time,TemperatureF,DewpointF,PressureIn,WindDirection,WindDirectionDegrees,WindSpeedMPH,WindSpeedGustMPH,Humidity,HourlyPrecipIn,Conditions,Clouds,dailyrainin,SoftwareType,DateUTC
2013-08-25 00:02:00,56.4,51.0,30.30,South,172,0.0,0.0,82,0.00,,,0.00,weatherlink.com 1.10,2013-08-25 04:02:00,
2013-08-25 00:17:00,56.1,51.0,30.30,South,172,0.0,0.0,84,0.00,,,0.00,weatherlink.com 1.10,2013-08-25 04:17:00,
2013-08-25 00:32:00,55.9,52.0,30.30,South,172,0.0,0.0,86,0.00,,,0.00,weatherlink.com 1.10,2013-08-25 04:32:00,
2013-08-25 00:47:00,55.5,51.0,30.30,South,172,0.0,0.0,86,0.00,,,0.00,weatherlink.com 1.10,2013-08-25 04:47:00,
2013-08-25 01:02:00,55.2,51.0,30.29,South,172,0.0,0.0,87,0.00,,,0.00,weatherlink.com 1.10,2013-08-25 05:02:00,
2013-08-25 01:17:00,54.7,51.0,30.30,South,172,0.0,0.0,87,0.00,,,0.00,weatherlink.com 1.10,2013-08-25 05:17:00,
2013-08-25 01:32:00,54.3,51.0,30.29,South,172,0.0,0.0,88,0.00,,,0.00,weatherlink.com 1.10,2013-08-25 05:32:00,
2013-08-25 01:47:00,53.8,50.0,30.29,South,172,0.0,1.0,87,0.00,,,0.00,weatherlink.com 1.10,2013-08-25 05:47:00,
2013-08-25 02:02:00,53.6,51.0,30.29,South,172,0.0,1.0,89,0.00,,,0.00,weatherlink.com 1.10,2013-08-25 06:02:00,
2013-08-25 02:17:00,53.2,51.0,30.29,South,172,0.0,1.0,91,0.00,,,0.00,weatherlink.com 1.10,2013-08-25 06:17:00,
2013-08-25 02:32:00,52.9,51.0,30.29,South,172,0.0,0.0,92,0.00,,,0.00,weatherlink.com 1.10,2013-08-25 06:32:00,
2013-08-25 02:47:00,52.6,51.0,30.29,South,172,0.0,0.0,93,0.00,,,0.00,weatherlink.com 1.10,2013-08-25 06:47:00,
2013-08-25 03:02:00,52.4,51.0,30.29,South,172,0.0,0.0,93,0.00,,,0.00,weatherlink.com 1.10,2013-08-25 07:02:00,
2013-08-25 03:17:00,52.2,50.0,30.29,South,172,0.0,1.0,93,0.00,,,0.00,weatherlink.com 1.10,2013-08-25 07:17:00,
2013-08-25 03:32:00,52.2,50.0,30.29,South,173,0.0,1.0,93,0.00,,,0.00,weatherlink.com 1.10,2013-08-25 07:32:00,
2013-08-25 03:48:00,52.0,50.0,30.29,South,174,0.0,0.0,94,0.00,,,0.00,weatherlink.com 1.10,2013-08-25 07:48:00,
2013-08-25 04:03:00,52.2,51.0,30.29,South,173,0.0,0.0,95,0.00,,,0.00,weatherlink.com 1.10,2013-08-25 08:03:00,
2013-08-25 04:18:00,52.0,51.0,30.30,South,172,0.0,0.0,95,0.00,,,0.00,weatherlink.com 1.10,2013-08-25 08:18:00,
2013-08-25 04:33:00,51.8,51.0,30.30,South,172,0.0,0.0,95,0.00,,,0.00,weatherlink.com 1.10,2013-08-25 08:33:00,
2013-08-25 04:48:00,51.5,50.0,30.30,South,172,0.0,1.0,95,0.00,,,0.00,weatherlink.com 1.10,2013-08-25 08:48:00,
2013-08-25 05:03:00,51.2,50.0,30.31,South,172,0.0,0.0,96,0.00,,,0.00,weatherlink.com 1.10,2013-08-25 09:03:00,
2013-08-25 05:18:00,51.0,50.0,30.31,South,172,0.0,0.0,96,0.00,,,0.00,weatherlink.com 1.10,2013-08-25 09:18:00,
2013-08-25 05:33:00,50.7,50.0,30.32,South,172,0.0,0.0,96,0.00,,,0.00,weatherlink.com 1.10,2013-08-25 09:33:00,
2013-08-25 05:48:00,50.5,49.0,30.32,South,172,0.0,1.0,96,0.00,,,0.00,weatherlink.com 1.10,2013-08-25 09:48:00,
2013-08-25 06:03:00,50.2,49.0,30.33,South,172,0.0,0.0,96,0.00,,,0.00,weatherlink.com 1.10,2013-08-25 10:03:00,
2013-08-25 06:18:00,50.1,49.0,30.33,South,172,0.0,0.0,97,0.00,,,0.00,weatherlink.com 1.10,2013-08-25 10:18:00,
2013-08-25 06:33:00,50.4,50.0,30.33,South,172,0.0,0.0,97,0.00,,,0.00,weatherlink.com 1.10,2013-08-25 10:33:00,
2013-08-25 06:48:00,50.6,50.0,30.33,South,172,0.0,0.0,97,0.00,,,0.00,weatherlink.com 1.10,2013-08-25 10:48:00,
2013-08-25 07:03:00,51.2,51.0,30.34,South,172,0.0,0.0,98,0.00,,,0.00,weatherlink.com 1.10,2013-08-25 11:03:00,
2013-08-25 07:18:00,52.1,51.0,30.34,South,172,0.0,0.0,97,0.00,,,0.00,weatherlink.com 1.10,2013-08-25 11:18:00,
2013-08-25 07:33:00,53.0,52.0,30.34,South,172,0.0,0.0,97,0.00,,,0.00,weatherlink.com 1.10,2013-08-25 11:33:00,
2013-08-25 07:48:00,54.2,53.0,30.34,South,172,0.0,0.0,95,0.00,,,0.00,weatherlink.com 1.10,2013-08-25 11:48:00,
2013-08-25 08:03:00,55.3,54.0,30.34,South,172,0.0,0.0,94,0.00,,,0.00,weatherlink.com 1.10,2013-08-25 12:03:00,
2013-08-25 08:18:00,56.2,55.0,30.33,South,172,0.0,0.0,94,0.00,,,0.00,weatherlink.com 1.10,2013-08-25 12:18:00,
2013-08-25 08:33:00,57.3,55.0,30.34,South,172,0.0,0.0,93,0.00,,,0.00,weatherlink.com 1.10,2013-08-25 12:33:00,
2013-08-25 08:48:00,58.5,56.0,30.34,South,172,0.0,1.0,91,0.00,,,0.00,weatherlink.com 1.10,2013-08-25 12:48:00,
2013-08-25 09:03:00,60.4,57.0,30.34,South,172,0.0,1.0,89,0.00,,,0.00,weatherlink.com 1.10,2013-08-25 13:03:00,
2013-08-25 09:18:00,62.3,58.0,30.34,South,177,0.0,1.0,86,0.00,,,0.00,weatherlink.com 1.10,2013-08-25 13:18:00,
2013-08-25 09:33:00,63.8,59.0,30.34,SSW,204,0.0,2.0,85,0.00,,,0.00,weatherlink.com 1.10,2013-08-25 13:33:00,
2013-08-25 09:48:00,65.4,59.0,30.34,SSW,204,0.0,1.0,80,0.00,,,0.00,weatherlink.com 1.10,2013-08-25 13:48:00,
2013-08-25 10:03:00,67.3,58.0,30.33,SSW,204,0.0,0.0,71,0.00,,,0.00,weatherlink.com 1.10,2013-08-25 14:03:00,
2013-08-25 10:18:00,69.5,58.0,30.32,ESE,107,1.0,2.0,67,0.00,,,0.00,weatherlink.com 1.10,2013-08-25 14:18:00,
2013-08-25 10:33:00,71.5,57.0,30.33,South,179,0.0,1.0,61,0.00,,,0.00,weatherlink.com 1.10,2013-08-25 14:33:00,
2013-08-25 10:48:00,73.1,58.0,30.32,SSE,149,0.0,1.0,59,0.00,,,0.00,weatherlink.com 1.10,2013-08-25 14:48:00,
2013-08-25 11:03:00,73.6,58.0,30.32,SW,229,0.0,1.0,59,0.00,,,0.00,weatherlink.com 1.10,2013-08-25 15:03:00,
2013-08-25 11:18:00,74.4,56.0,30.31,SSW,206,1.0,3.0,53,0.00,,,0.00,weatherlink.com 1.10,2013-08-25 15:18:00,
2013-08-25 11:34:00,74.4,57.0,30.30,SSE,166,0.0,1.0,55,0.00,,,0.00,weatherlink.com 1.10,2013-08-25 15:34:00,
2013-08-25 11:49:00,75.6,58.0,30.29,SSE,164,1.0,2.0,54,0.00,,,0.00,weatherlink.com 1.10,2013-08-25 15:49:00,
2013-08-25 12:04:00,75.5,58.0,30.29,SSE,160,1.0,2.0,55,0.00,,,0.00,weatherlink.com 1.10,2013-08-25 16:04:00,
2013-08-25 12:19:00,76.4,58.0,30.28,SE,143,0.0,5.0,54,0.00,,,0.00,weatherlink.com 1.10,2013-08-25 16:19:00,
2013-08-25 12:34:00,77.1,58.0,30.27,SSW,204,1.0,1.0,52,0.00,,,0.00,weatherlink.com 1.10,2013-08-25 16:34:00,
2013-08-25 12:49:00,77.5,57.0,30.27,SE,144,1.0,1.0,50,0.00,,,0.00,weatherlink.com 1.10,2013-08-25 16:49:00,
2013-08-25 13:04:00,77.6,59.0,30.26,South,169,0.0,4.0,53,0.00,,,0.00,weatherlink.com 1.10,2013-08-25 17:04:00,
2013-08-25 13:19:00,77.8,58.0,30.27,ESE,121,1.0,2.0,51,0.00,,,0.00,weatherlink.com 1.10,2013-08-25 17:19:00,
2013-08-25 13:34:00,78.6,59.0,30.26,SW,224,1.0,3.0,51,0.00,,,0.00,weatherlink.com 1.10,2013-08-25 17:34:00,
2013-08-25 13:49:00,78.4,58.0,30.26,NE,51,0.0,2.0,50,0.00,,,0.00,weatherlink.com 1.10,2013-08-25 17:49:00,
2013-08-25 14:04:00,78.5,57.0,30.26,South,174,0.0,2.0,48,0.00,,,0.00,weatherlink.com 1.10,2013-08-25 18:04:00,
2013-08-25 14:19:00,78.6,58.0,30.25,SSE,149,1.0,4.0,49,0.00,,,0.00,weatherlink.com 1.10,2013-08-25 18:19:00,
2013-08-25 14:34:00,78.2,56.0,30.25,NW,316,1.0,2.0,47,0.00,,,0.00,weatherlink.com 1.10,2013-08-25 18:34:00,
2013-08-25 14:49:00,78.7,56.0,30.24,NNW,335,0.0,3.0,46,0.00,,,0.00,weatherlink.com 1.10,2013-08-25 18:49:00,
2013-08-25 15:04:00,78.5,54.0,30.23,SSE,158,2.0,3.0,43,0.00,,,0.00,weatherlink.com 1.10,2013-08-25 19:04:00,
2013-08-25 15:19:00,77.7,55.0,30.22,South,173,0.0,2.0,46,0.00,,,0.00,weatherlink.com 1.10,2013-08-25 19:19:00,
2013-08-25 15:34:00,77.7,56.0,30.22,North,11,0.0,4.0,47,0.00,,,0.00,weatherlink.com 1.10,2013-08-25 19:34:00,
2013-08-25 15:49:00,77.2,54.0,30.21,East,93,0.0,4.0,44,0.00,,,0.00,weatherlink.com 1.10,2013-08-25 19:49:00,
2013-08-25 16:04:00,76.7,53.0,30.21,SSE,165,0.0,3.0,44,0.00,,,0.00,weatherlink.com 1.10,2013-08-25 20:04:00,
2013-08-25 16:19:00,76.4,55.0,30.21,SE,134,0.0,3.0,47,0.00,,,0.00,weatherlink.com 1.10,2013-08-25 20:19:00,
2013-08-25 16:34:00,76.1,55.0,30.20,South,169,0.0,2.0,48,0.00,,,0.00,weatherlink.com 1.10,2013-08-25 20:34:00,
2013-08-25 16:49:00,75.8,56.0,30.20,South,174,3.0,4.0,50,0.00,,,0.00,weatherlink.com 1.10,2013-08-25 20:49:00,
2013-08-25 17:04:00,75.2,58.0,30.19,SW,215,0.0,2.0,56,0.00,,,0.00,weatherlink.com 1.10,2013-08-25 21:04:00,
2013-08-25 17:19:00,74.6,59.0,30.19,ESE,109,0.0,1.0,58,0.00,,,0.00,weatherlink.com 1.10,2013-08-25 21:19:00,
2013-08-25 17:34:00,74.1,59.0,30.18,ESE,115,0.0,1.0,59,0.00,,,0.00,weatherlink.com 1.10,2013-08-25 21:34:00,
2013-08-25 17:49:00,73.5,60.0,30.18,SE,141,0.0,1.0,62,0.00,,,0.00,weatherlink.com 1.10,2013-08-25 21:49:00,
2013-08-25 18:04:00,72.3,60.0,30.17,SE,141,0.0,1.0,66,0.00,,,0.00,weatherlink.com 1.10,2013-08-25 22:04:00,
2013-08-25 18:19:00,71.3,61.0,30.17,SE,142,0.0,0.0,70,0.00,,,0.00,weatherlink.com 1.10,2013-08-25 22:19:00,
2013-08-25 18:34:00,69.9,62.0,30.16,SE,142,0.0,0.0,76,0.00,,,0.00,weatherlink.com 1.10,2013-08-25 22:34:00,
2013-08-25 18:49:00,68.8,62.0,30.16,SE,142,0.0,0.0,78,0.00,,,0.00,weatherlink.com 1.10,2013-08-25 22:49:00,
2013-08-25 19:04:00,67.8,62.0,30.15,SE,142,0.0,1.0,81,0.00,,,0.00,weatherlink.com 1.10,2013-08-25 23:04:00,
2013-08-25 19:19:00,66.8,61.0,30.15,SE,143,0.0,1.0,82,0.00,,,0.00,weatherlink.com 1.10,2013-08-25 23:19:00,
2013-08-25 19:34:00,66.1,61.0,30.16,SE,142,0.0,1.0,82,0.00,,,0.00,weatherlink.com 1.10,2013-08-25 23:34:00,
2013-08-25 19:49:00,65.6,60.0,30.15,SE,142,0.0,1.0,81,0.00,,,0.00,weatherlink.com 1.10,2013-08-25 23:49:00,
2013-08-25 20:04:00,65.4,59.0,30.15,SE,142,0.0,0.0,80,0.00,,,0.00,weatherlink.com 1.10,2013-08-26 00:04:00,
2013-08-25 20:19:00,65.3,58.0,30.16,SE,142,0.0,0.0,78,0.00,,,0.00,weatherlink.com 1.10,2013-08-26 00:19:00,
2013-08-25 20:34:00,65.1,58.0,30.16,SE,142,0.0,0.0,79,0.00,,,0.00,weatherlink.com 1.10,2013-08-26 00:34:00,
2013-08-25 20:50:00,64.7,58.0,30.15,SE,142,0.0,0.0,78,0.00,,,0.00,weatherlink.com 1.10,2013-08-26 00:50:00,
2013-08-25 21:05:00,64.4,58.0,30.16,SE,142,0.0,0.0,79,0.00,,,0.00,weatherlink.com 1.10,2013-08-26 01:05:00,
2013-08-25 21:20:00,64.3,58.0,30.15,SE,143,0.0,0.0,80,0.00,,,0.00,weatherlink.com 1.10,2013-08-26 01:20:00,
2013-08-25 21:35:00,64.0,58.0,30.15,SE,142,0.0,0.0,81,0.00,,,0.00,weatherlink.com 1.10,2013-08-26 01:35:00,
2013-08-25 21:50:00,63.7,57.0,30.14,SE,142,0.0,0.0,79,0.00,,,0.00,weatherlink.com 1.10,2013-08-26 01:50:00,
2013-08-25 22:06:00,63.6,58.0,30.15,SE,142,0.0,0.0,81,0.00,,,0.00,weatherlink.com 1.10,2013-08-26 02:06:00,
2013-08-25 22:20:00,63.5,57.0,30.15,SE,143,0.0,0.0,79,0.00,,,0.00,weatherlink.com 1.10,2013-08-26 02:20:00,
2013-08-25 22:35:00,63.5,57.0,30.15,SE,142,0.0,0.0,79,0.00,,,0.00,weatherlink.com 1.10,2013-08-26 02:35:00,
2013-08-25 22:50:00,63.7,57.0,30.14,SE,142,0.0,1.0,79,0.00,,,0.00,weatherlink.com 1.10,2013-08-26 02:50:00,
2013-08-25 23:05:00,64.0,57.0,30.14,SE,142,0.0,0.0,79,0.00,,,0.00,weatherlink.com 1.10,2013-08-26 03:05:00,
2013-08-25 23:20:00,64.1,57.0,30.14,SE,142,0.0,0.0,79,0.00,,,0.00,weatherlink.com 1.10,2013-08-26 03:20:00,
2013-08-25 23:35:00,63.9,58.0,30.14,SE,143,0.0,0.0,80,0.00,,,0.00,weatherlink.com 1.10,2013-08-26 03:35:00,
2013-08-25 23:50:00,63.5,58.0,30.14,SE,142,0.0,0.0,82,0.00,,,0.00,weatherlink.com 1.10,2013-08-26 03:50:00,